Date String (YYYY-MM-DD hh:mm:ss) UTC,Instrument flags,Ambient pressure (hPa),Sample flow (lpm),Bypass flow (lpm),Sample temperature (°C),Ambient temperature (°C),ASC tube jacket temperature (°C),LED temperature (°C),Box temperature (°C),Sample RH (%),Span deviation,Mass concentration (μg/m³),Mass concentration (μg/m³),Mass concentration (μg/m³)
DateTimeUTC,F1_M11,P_M11,Q1_M11,Q2_M11,T1_M11,T2_M11,T3_M11,T4_M11,T5_M11,U1_M11,ZSPAN_M11,X2_M11,X0_M11,X1_M11
2023-01-17 01:00:00,,0813.2,4.99,0.00,23.3,21.9,00.0,32.3,25.0,13.9,-001.2,0009.89,0017.03,0009.04
2023-01-17 01:01:00,,0813.3,5.00,0.00,23.3,21.9,00.0,32.3,25.0,14.1,-000.9,0009.97,0017.08,0009.12
2023-01-17 01:02:00,,0813.3,5.00,0.00,23.3,21.9,00.0,32.3,25.0,14.0,-000.8,0010.06,0017.39,0009.22
2023-01-17 01:03:00,,0813.3,5.00,0.00,23.3,21.9,00.0,32.3,25.0,14.1,-000.8,0010.16,0017.97,0009.33
2023-01-17 01:04:00,,0813.3,5.01,0.00,23.3,21.9,00.0,32.3,25.0,13.8,-000.8,0010.31,0018.98,0009.45
2023-01-17 01:05:00,,0813.3,5.01,0.00,23.3,21.9,00.0,32.3,25.0,13.7,-001.0,0010.39,0019.11,0009.54
2023-01-17 01:06:00,,0813.3,5.00,0.00,23.3,21.9,00.0,32.2,25.0,13.8,-001.2,0010.53,0018.93,0009.65
2023-01-17 01:07:00,,0813.3,4.99,0.00,23.3,21.9,00.0,32.2,25.0,13.6,-001.3,0010.58,0017.71,0009.72
2023-01-17 01:08:00,,0813.3,4.99,0.00,23.3,21.9,00.0,32.2,25.1,13.4,-001.1,0010.63,0017.63,0009.78
2023-01-17 01:09:00,,0813.3,4.99,0.00,23.3,21.9,00.0,32.2,25.1,13.3,-001.3,0010.67,0017.87,0009.80
2023-01-17 01:10:00,,0813.3,4.98,0.00,23.3,21.9,00.0,32.2,25.0,13.1,-000.9,0010.62,0017.59,0009.75
2023-01-17 01:11:00,,0813.3,5.01,0.00,23.3,21.9,00.0,32.2,25.0,13.0,-001.1,0010.58,0017.61,0009.70
2023-01-17 01:12:00,,0813.3,5.01,0.00,23.3,21.9,00.0,32.2,25.0,12.9,-001.9,0010.50,0017.65,0009.60
2023-01-17 01:13:00,,0813.3,5.04,0.00,23.3,21.9,00.0,32.2,25.0,13.2,-001.9,0010.46,0018.39,0009.56
2023-01-17 01:14:00,,0813.3,4.99,0.00,23.3,21.9,00.0,32.2,25.0,13.3,-002.3,0010.38,0017.58,0009.54
2023-01-17 01:15:00,,0813.3,4.99,0.00,23.3,21.9,00.0,32.2,25.0,13.6,-003.0,0010.35,0016.46,0009.57
2023-01-17 01:16:00,,0813.3,4.99,0.00,23.3,21.9,00.0,32.2,24.9,13.3,-003.0,0010.35,0016.47,0009.58
2023-01-17 01:17:00,,0813.3,5.02,0.00,23.3,21.9,00.0,32.2,24.9,12.9,-003.0,0010.26,0016.42,0009.52
2023-01-17 01:18:00,,0813.3,5.00,0.00,23.3,21.9,00.0,32.2,25.0,12.6,-002.6,0010.16,0016.22,0009.43
2023-01-17 01:19:00,,0813.3,5.01,0.00,23.3,21.9,00.0,32.2,25.0,12.6,-003.0,0010.06,0016.08,0009.36
2023-01-17 01:20:00,,0813.3,5.00,0.00,23.3,21.9,00.0,32.2,25.0,12.6,-003.1,0010.03,0015.91,0009.32
2023-01-17 01:21:00,,0813.4,5.00,0.00,23.3,21.9,00.0,32.2,25.0,12.7,-003.2,0010.03,0016.13,0009.29
2023-01-17 01:22:00,,0813.4,4.99,0.00,23.3,21.9,00.0,32.2,25.0,12.7,-003.0,0010.02,0016.01,0009.27
2023-01-17 01:23:00,,0813.5,5.01,0.00,23.3,21.9,00.0,32.2,25.0,12.6,-003.0,0010.01,0015.90,0009.27
2023-01-17 01:24:00,,0813.3,5.00,0.00,23.3,21.9,00.0,32.2,25.0,12.5,-002.9,0009.93,0014.73,0009.21
2023-01-17 01:25:00,,0813.3,5.00,0.00,23.3,21.9,00.0,32.2,25.0,12.5,-002.5,0009.82,0014.53,0009.12
2023-01-17 01:26:00,,0813.3,5.01,0.00,23.3,21.9,00.0,32.2,24.9,12.7,-002.0,0009.71,0014.34,0009.02
2023-01-17 01:27:00,,0813.3,4.99,0.00,23.2,21.9,00.0,32.2,25.0,12.9,-001.3,0009.66,0014.03,0008.97
2023-01-17 01:28:00,,0813.3,5.00,0.00,23.2,21.9,00.0,32.2,25.0,12.9,-000.9,0009.67,0013.86,0008.99
2023-01-17 01:29:00,,0813.3,5.01,0.00,23.2,21.9,00.0,32.2,25.0,12.7,-000.5,0009.73,0013.96,0009.02
2023-01-17 01:30:00,,0813.3,5.00,0.00,23.2,21.9,00.0,32.2,25.0,12.7,-000.4,0009.78,0014.27,0009.04
2023-01-17 01:31:00,,0813.4,5.01,0.00,23.2,21.9,00.0,32.1,25.0,12.7,-000.1,0009.76,0014.57,0009.05
2023-01-17 01:32:00,,0813.3,5.00,0.00,23.2,21.9,00.0,32.1,25.0,12.7,0000.5,0009.75,0014.99,0009.07
2023-01-17 01:33:00,,0813.3,4.99,0.00,23.2,21.8,00.0,32.1,25.0,12.8,0000.4,0009.72,0015.17,0009.08
2023-01-17 01:34:00,,0813.4,5.00,0.00,23.2,21.8,00.0,32.1,25.0,13.0,0000.6,0009.72,0015.48,0009.08
2023-01-17 01:35:00,,0813.4,4.98,0.00,23.2,21.8,00.0,32.1,24.9,13.1,0001.2,0009.76,0015.54,0009.10
2023-01-17 01:36:00,,0813.4,4.99,0.00,23.2,21.8,00.0,32.1,24.9,13.2,0000.5,0009.77,0015.57,0009.10
2023-01-17 01:37:00,,0813.4,5.02,0.00,23.2,21.8,00.0,32.1,24.9,13.0,-000.4,0009.77,0015.56,0009.07
2023-01-17 01:38:00,,0813.4,5.00,0.00,23.2,21.8,00.0,32.1,24.9,12.9,-001.6,0009.70,0015.42,0009.02
2023-01-17 01:39:00,,0813.4,5.00,0.00,23.2,21.8,00.0,32.1,24.9,12.7,-002.1,0009.61,0015.52,0008.91
2023-01-17 01:40:00,,0813.4,4.97,0.00,23.2,21.8,00.0,32.1,25.0,12.7,-002.7,0009.53,0015.75,0008.85
2023-01-17 01:41:00,,0813.4,4.97,0.00,23.2,21.8,00.0,32.1,25.0,12.7,-002.7,0009.41,0015.60,0008.78
2023-01-17 01:42:00,,0813.4,4.98,0.00,23.2,21.8,00.0,32.1,25.0,12.7,-002.4,0009.35,0014.98,0008.73
2023-01-17 01:43:00,,0813.4,4.98,0.00,23.2,21.9,00.0,32.1,25.0,12.7,-002.6,0009.28,0014.20,0008.66
2023-01-17 01:44:00,,0813.5,5.01,0.00,23.2,21.9,00.0,32.1,25.0,12.5,-001.2,0009.21,0013.85,0008.61
2023-01-17 01:45:00,,0813.5,5.01,0.00,23.2,21.9,00.0,32.1,25.0,12.5,0000.0,0009.13,0013.41,0008.53
2023-01-17 01:46:00,,0813.5,5.00,0.00,23.2,21.9,00.0,32.1,25.0,12.5,0000.0,0009.04,0013.35,0008.45
2023-01-17 01:47:00,,0813.4,5.00,0.00,23.2,21.9,00.0,32.1,25.0,12.4,0000.0,0009.03,0013.59,0008.41
2023-01-17 01:48:00,,0813.4,4.99,0.00,23.2,21.9,00.0,32.1,25.0,12.4,0000.0,0009.02,0013.74,0008.38
2023-01-17 01:49:00,,0813.4,5.00,0.00,23.2,21.9,00.0,32.1,25.0,12.3,0000.0,0009.01,0013.88,0008.36
2023-01-17 01:50:00,,0813.5,4.99,0.00,23.2,21.9,00.0,32.1,25.0,12.3,0000.0,0009.05,0013.76,0008.38
2023-01-17 01:51:00,,0813.5,5.00,0.00,23.2,21.9,00.0,32.1,25.0,12.3,0000.0,0009.05,0013.44,0008.37
2023-01-17 01:52:00,,0813.4,5.01,0.00,23.2,21.9,00.0,32.1,25.0,12.2,0000.0,0009.08,0013.34,0008.37
2023-01-17 01:53:00,,0813.4,5.02,0.00,23.2,21.9,00.0,32.1,25.0,12.2,0000.0,0009.05,0013.55,0008.34
2023-01-17 01:54:00,,0813.4,5.02,0.00,23.2,21.9,00.0,32.1,25.1,12.2,0000.0,0008.99,0013.38,0008.32
2023-01-17 01:55:00,,0813.4,5.00,0.00,23.2,21.9,00.0,32.1,25.0,12.2,-000.0,0008.96,0013.32,0008.28
2023-01-17 01:56:00,,0813.5,5.00,0.00,23.2,21.9,00.0,32.1,25.0,12.3,-001.1,0008.98,0013.42,0008.28
2023-01-17 01:57:00,,0813.5,5.00,0.00,23.3,21.9,00.0,32.1,25.1,12.3,-001.3,0008.96,0013.32,0008.30
2023-01-17 01:58:00,,0813.5,4.99,0.00,23.3,21.9,00.0,32.1,25.1,12.4,-001.2,0008.94,0013.03,0008.31
2023-01-17 01:59:00,,0813.5,5.00,0.00,23.2,21.9,00.0,32.1,25.1,12.3,-001.6,0008.91,0012.84,0008.31
